Location: Newark
(45.5000°N, 11.4167°E)
Time: 19:50:01
(UTC+00:00)

Vanguard 2 - Pass Details

Date: 28 August 2019
Orbit: 554 x 2937 km, 32.9° (Epoch: 18 October)

Event Time Altitude Azimuth Distance (km) Brightness Sun altitude
Rises 11:09:53 0° 232° (SW) 2,953 10.8 54.2°
Reaches altitude 10° 11:12:19 10° 217° (SW) 2,216 10.5 54.2°
Maximum altitude 11:16:21 23° 164° (SSE) 1,801 10.6 54.2°
Drops below altitude 10° 11:21:53 10° 115° (ESE) 3,139 11.0 54.2°
Sets 11:26:06 0° 103° (ESE) 4,561 11.6 54.1°
